Location: Recife
(8.0585°S, 34.8848°W)
Time: 22:28:04
(UTC-03:00)

Tiros 1 - Pass Details

Date: 22 April 2026
Orbit: 618 x 649 km, 48.4° (Epoch: 19 May)

Event Time Altitude Azimuth Distance (km) Brightness Sun altitude
Exits shadow 04:35:43 16° 242° (WSW) 1,637 8.6 -12.0°
Maximum altitude 04:39:03 42° 308° (NW) 882 7.5 -11.2°
Drops below altitude 10° 04:43:20 10° 19° (NNE) 1,968 10.1 -10.1°
Sets 04:45:43 0° 26° (NNE) 2,868 11.1 -9.6°
